Location: Catacaguana
(10.4120°N, 66.7591°W)
Time: 04:47:57
(UTC+00:00)

Cosmos 1656 Rocket - Pass Details

Date: 27 May 2022
Orbit: 796 x 845 km, 71.1° (Epoch: 26 June)

Event Time Altitude Azimuth Distance (km) Brightness Sun altitude
Rises 08:36:47 0° 333° (NNW) 3,294 6.8 -20.4°
Reaches altitude 10° 08:39:15 10° 328° (NNW) 2,369 6.0 -19.8°
Maximum altitude 08:44:24 46° 256° (WSW) 1,071 3.8 -18.7°
Drops below altitude 10° 08:49:37 10° 183° (S) 2,396 5.8 -17.6°
Sets 08:52:09 0° 177° (S) 3,335 6.6 -17.0°
